When you browse on this site, cookies collect data to enhance your experience and personalize the content and advertising you see.
Visit our Privacy Policy to learn more. By continuing to use the site, you agree to this use of cookies and data.
  • In Czech Republic
  • List of Countries
  • For 7 days
  • Water Temperature
  • Weather Map
  • Weather Widgets
  • user-avatar
    Login

    Hourly Weather Mishawaka

    Today, 22 August, Thursday

    Time Temperature Precipitation Wind Pressure Humidity
    00:00 +19°C° 0 mm 3 mps 740 mmHg 91%
    01:00 +19°C° 0 mm 2 mps 740 mmHg 90%
    02:00 +19°C° 0 mm 2 mps 740 mmHg 89%
    03:00 +19°C° 0 mm 2 mps 740 mmHg 88%
    04:00 +18°C° 0 mm 2 mps 740 mmHg 89%
    05:00 +18°C° 0 mm 2 mps 741 mmHg 90%
    06:00 +18°C° 0 mm 2 mps 741 mmHg 92%
    07:00 +19°C° 0 mm 2 mps 741 mmHg 88%
    08:00 +20°C° 0 mm 2 mps 741 mmHg 84%
    09:00 +21°C° 0 mm 3 mps 742 mmHg 81%
    10:00 +22°C° 0 mm 3 mps 742 mmHg 77%
    11:00 +24°C° 0 mm 3 mps 742 mmHg 74%
    12:00 +25°C° 0 mm 3 mps 742 mmHg 70%
    13:00 +24°C° 0 mm 3 mps 742 mmHg 70%
    14:00 +24°C° 0 mm 3 mps 742 mmHg 70%
    15:00 +24°C° 0 mm 3 mps 741 mmHg 71%
    16:00 +22°C° 0 mm 3 mps 742 mmHg 74%
    17:00 +21°C° 0 mm 3 mps 742 mmHg 78%
    18:00 +20°C° 0 mm 2 mps 742 mmHg 82%
    19:00 +19°C° 0 mm 2 mps 742 mmHg 82%
    20:00 +18°C° 0 mm 2 mps 743 mmHg 83%
    21:00 +17°C° 0 mm 2 mps 743 mmHg 83%
    22:00 +16°C° 0 mm 2 mps 743 mmHg 84%
    23:00 +16°C° 0 mm 2 mps 743 mmHg 84%

    Tomorrow, 23 August, Friday

    Time Temperature Precipitation Wind Pressure Humidity
    00:00 +15°C° 0 mm 2 mps 743 mmHg 84%
    01:00 +15°C° 0 mm 2 mps 743 mmHg 84%
    02:00 +14°C° 0 mm 2 mps 743 mmHg 85%
    03:00 +14°C° 0 mm 2 mps 743 mmHg 85%
    04:00 +14°C° 0 mm 2 mps 744 mmHg 85%
    05:00 +13°C° 0 mm 2 mps 745 mmHg 85%
    06:00 +13°C° 0 mm 2 mps 745 mmHg 85%
    07:00 +15°C° 0 mm 2 mps 745 mmHg 81%
    08:00 +17°C° 0 mm 2 mps 746 mmHg 76%
    09:00 +19°C° 0 mm 2 mps 746 mmHg 71%
    10:00 +20°C° 0 mm 2 mps 746 mmHg 68%
    11:00 +21°C° 0 mm 3 mps 746 mmHg 65%
    12:00 +22°C° 0 mm 3 mps 746 mmHg 61%
    13:00 +22°C° 0 mm 3 mps 746 mmHg 62%
    14:00 +22°C° 0 mm 3 mps 746 mmHg 62%
    15:00 +22°C° 0 mm 3 mps 745 mmHg 62%
    16:00 +21°C° 0 mm 3 mps 746 mmHg 69%
    17:00 +19°C° 0 mm 3 mps 746 mmHg 75%
    18:00 +18°C° 0 mm 3 mps 746 mmHg 81%
    19:00 +17°C° 0 mm 3 mps 746 mmHg 84%
    20:00 +14°C° 0 mm 3 mps 746 mmHg 88%
    21:00 +13°C° 0 mm 3 mps 746 mmHg 91%
    22:00 +14°C° 0 mm 2 mps 746 mmHg 91%
    23:00 +14°C° 0 mm 2 mps 746 mmHg 91%

    Day after tomorrow, 24 August, Saturday

    Time Temperature Precipitation Wind Pressure Humidity
    00:00 +13°C° 0 mm 2 mps 746 mmHg 91%
    01:00 +13°C° 0 mm 2 mps 746 mmHg 91%
    02:00 +13°C° 0 mm 2 mps 746 mmHg 91%
    03:00 +12°C° 0 mm 2 mps 746 mmHg 91%
    04:00 +12°C° 0 mm 2 mps 747 mmHg 92%
    05:00 +12°C° 0 mm 2 mps 747 mmHg 93%
    06:00 +12°C° 0 mm 3 mps 747 mmHg 93%
    07:00 +14°C° 0 mm 3 mps 748 mmHg 88%
    08:00 +17°C° 0 mm 3 mps 748 mmHg 82%
    09:00 +19°C° 0 mm 3 mps 748 mmHg 77%
    10:00 +20°C° 0 mm 3 mps 748 mmHg 73%
    11:00 +21°C° 0 mm 3 mps 748 mmHg 69%
    12:00 +22°C° 0 mm 3 mps 748 mmHg 66%
    13:00 +22°C° 0 mm 3 mps 747 mmHg 66%
    14:00 +22°C° 0 mm 3 mps 747 mmHg 66%
    15:00 +22°C° 0 mm 3 mps 746 mmHg 66%
    16:00 +21°C° 0 mm 3 mps 746 mmHg 72%
    17:00 +20°C° 0 mm 3 mps 746 mmHg 78%
    18:00 +19°C° 0 mm 2 mps 746 mmHg 84%
    19:00 +17°C° 0 mm 2 mps 746 mmHg 86%
    20:00 +16°C° 0 mm 2 mps 746 mmHg 89%
    21:00 +15°C° 0 mm 2 mps 747 mmHg 92%
    22:00 +14°C° 0 mm 2 mps 746 mmHg 92%
    23:00 +14°C° 0 mm 2 mps 746 mmHg 92%

    25 August, Sunday

    Time Temperature Precipitation Wind Pressure Humidity
    00:00 +13°C° 0 mm 2 mps 746 mmHg 92%
    01:00 +12°C° 0 mm 3 mps 745 mmHg 93%
    02:00 +12°C° 0 mm 3 mps 745 mmHg 94%
    03:00 +11°C° 0 mm 3 mps 745 mmHg 94%
    04:00 +12°C° 0 mm 3 mps 745 mmHg 94%
    05:00 +12°C° 0 mm 3 mps 745 mmHg 95%
    06:00 +12°C° 0 mm 3 mps 745 mmHg 95%
    07:00 +16°C° 0 mm 3 mps 745 mmHg 90%
    08:00 +18°C° 0 mm 3 mps 745 mmHg 86%
    09:00 +20°C° 0 mm 4 mps 745 mmHg 81%
    10:00 +22°C° 0 mm 4 mps 744 mmHg 78%
    11:00 +23°C° 0 mm 4 mps 744 mmHg 75%
    12:00 +25°C° 0 mm 4 mps 744 mmHg 72%
    13:00 +25°C° 0 mm 4 mps 743 mmHg 74%
    14:00 +26°C° 0 mm 4 mps 743 mmHg 75%
    15:00 +26°C° 0 mm 4 mps 742 mmHg 76%
    16:00 +25°C° 0.1 mm 3 mps 742 mmHg 80%
    17:00 +24°C° 0.1 mm 3 mps 742 mmHg 85%
    18:00 +22°C° 0.1 mm 3 mps 742 mmHg 89%
    19:00 +22°C° 0 mm 3 mps 742 mmHg 91%
    20:00 +21°C° 0 mm 4 mps 742 mmHg 92%
    21:00 +20°C° 0 mm 4 mps 742 mmHg 94%
    22:00 +20°C° 0 mm 4 mps 742 mmHg 93%
    23:00 +19°C° 0 mm 4 mps 741 mmHg 93%

    26 August, Monday

    Time Temperature Precipitation Wind Pressure Humidity
    00:00 +19°C° 0 mm 4 mps 741 mmHg 92%
    01:00 +18°C° 0 mm 4 mps 741 mmHg 90%
    02:00 +18°C° 0 mm 4 mps 740 mmHg 87%
    03:00 +18°C° 0 mm 4 mps 740 mmHg 85%
    04:00 +18°C° 0 mm 4 mps 740 mmHg 85%
    05:00 +18°C° 0 mm 4 mps 740 mmHg 85%
    06:00 +19°C° 0 mm 4 mps 740 mmHg 86%
    07:00 +19°C° 0.5 mm 4 mps 740 mmHg 89%
    08:00 +19°C° 0.5 mm 4 mps 740 mmHg 92%
    09:00 +20°C° 0.5 mm 4 mps 740 mmHg 95%
    10:00 +20°C° 0.7 mm 4 mps 740 mmHg 96%
    11:00 +20°C° 0.7 mm 5 mps 739 mmHg 97%
    12:00 +21°C° 0.7 mm 5 mps 739 mmHg 97%
    13:00 +21°C° 0.3 mm 5 mps 739 mmHg 96%
    14:00 +22°C° 0.3 mm 6 mps 739 mmHg 95%
    15:00 +22°C° 0.3 mm 6 mps 738 mmHg 93%
    16:00 +22°C° 0 mm 6 mps 738 mmHg 94%
    17:00 +22°C° 0 mm 5 mps 738 mmHg 95%
    18:00 +21°C° 0 mm 5 mps 738 mmHg 95%
    19:00 +21°C° 0 mm 5 mps 738 mmHg 95%
    20:00 +21°C° 0 mm 5 mps 737 mmHg 95%
    21:00 +21°C° 0 mm 5 mps 737 mmHg 95%
    22:00 +21°C° 0.1 mm 5 mps 737 mmHg 95%
    23:00 +21°C° 0.1 mm 5 mps 736 mmHg 95%

    27 August, Tuesday

    Time Temperature Precipitation Wind Pressure Humidity
    00:00 +21°C° 0.1 mm 5 mps 736 mmHg 95%
    01:00 +21°C° 1.1 mm 5 mps 736 mmHg 96%
    02:00 +22°C° 1.1 mm 5 mps 735 mmHg 97%
    03:00 +22°C° 1.1 mm 5 mps 735 mmHg 98%
    04:00 +22°C° 0.7 mm 5 mps 735 mmHg 97%
    05:00 +22°C° 0.7 mm 6 mps 734 mmHg 97%
    06:00 +22°C° 0.7 mm 6 mps 734 mmHg 96%
    07:00 +22°C° 0.9 mm 6 mps 734 mmHg 96%
    08:00 +22°C° 0.9 mm 6 mps 734 mmHg 95%
    09:00 +22°C° 0.9 mm 6 mps 735 mmHg 94%
    10:00 +23°C° 0.1 mm 7 mps 735 mmHg 88%
    11:00 +23°C° 0.1 mm 7 mps 736 mmHg 81%
    12:00 +24°C° 0.1 mm 8 mps 736 mmHg 75%
    13:00 +24°C° 0.1 mm 7 mps 736 mmHg 76%
    14:00 +23°C° 0.1 mm 7 mps 737 mmHg 76%
    15:00 +23°C° 0.1 mm 6 mps 737 mmHg 77%
    16:00 +22°C° 0 mm 5 mps 738 mmHg 79%
    17:00 +21°C° 0 mm 3 mps 738 mmHg 80%
    18:00 +20°C° 0 mm 2 mps 738 mmHg 82%
    19:00 +19°C° 0 mm 3 mps 739 mmHg 84%
    20:00 +18°C° 0 mm 3 mps 739 mmHg 86%
    21:00 +18°C° 0 mm 3 mps 739 mmHg 88%
    22:00 +17°C° 0 mm 4 mps 739 mmHg 90%
    23:00 +17°C° 0 mm 4 mps 739 mmHg 92%
    Show more